SCP
2 2 2 2 2 2 2 2 1 1 1 2 2 1 1 1 2 2 2 1 1 0 0 0 0 0 0 0 0 0 0 0 1 1 1 1 1 1
2 2 2 2 2 2 2 2 2 2 2 2 2 1 1 1 1 2 2 2 1 1 0 0 0 0 0 0 0 0 0 0 0 0 0 0 0 0
3 2 2 2 2 2 2 2 2 2 2 2 2 1 1 1 2 2 2 2 1 1 0 0 0 0 0 0 0 0 0 0 0 0 0 0 0 0
3 2 2 2 2 2 2 2 1 2 2 2 2 2 2 2 2 2 2 1 1 1 0 0 0 0 0 0 0 0 0 0 0 0 0 0 0 0
3 3 2 2 2 1 1 1 1 1 2 2 2 2 2 2 2 2 1 1 1 0 0 0 0 0 0 0 0 0 0 0 0 0 0 0 0 0
3 3 3 2 2 1 1 2 2 2 2 2 3 3 3 2 2 2 1 1 1 0 0 0 0 0 0 0 0 0 0 0 0 0 0 0 0 0
4 4 3 3 2 1 1 2 2 2 3 3 3 3 3 2 2 2 2 1 1 0 0 0 0 0 0 0 0 0 0 0 0 0 0 0 0 0
5 4 3 2 2 1 1 1 2 2 3 3 2 2 2 2 2 2 1 1 1 1 0 0 0 0 0 0 0 0 0 0 0 0 0 0 0 0
6 5 4 3 2 2 2 2 1 1 2 2 2 2 2 2 1 1 1 1 1 1 0 0 0 0 0 0 0 0 0 0 0 0 0 0 0 0
6 5 4 3 2 3 3 2 1 1 1 1 2 2 1 1 1 1 1 1 1 1 0 0 0 0 0 0 0 0 0 0 0 0 0 0 0 0
5 4 3 2 1 1 2 1 1 1 1 1 1 1 1 0 0 1 1 1 1 0 0 0 0 0 0 0 0 0 0 0 0 0 0 0 0 0
5 4 2 1 0 0 0 1 1 1 1 1 0 0 0 0 0 1 1 0 0 0 1 1 1 1 0 0 0 0 0 0 0 0 0 0 0 0
5 3 1 0 0 0 0 0 0 0 1 1 0 0 0 1 1 0 0 0 0 0 1 1 1 1 1 0 0 0 0 0 0 0 0 0 0 0
4 2 0 0 0 0 0 0 0 0 0 0 0 0 0 0 0 0 0 0 1 0 0 1 1 1 1 1 1 0 0 0 0 0 0 0 0 0
1 1 0 0 0 0 0 0 0 0 0 0 0 0 0 0 0 0 1 1 1 1 0 1 1 1 1 1 1 0 0 0 0 0 0 0 0 0
0 0 0 0 0 0 0 0 0 0 0 0 0 0 0 0 0 0 1 1 1 0 0 0 1 0 0 0 0 0 0 0 0 0 0 0 0 0
0 0 0 0 0 0 0 0 0 0 0 0 0 0 0 0 0 0 0 0 0 0 0 0 0 0 0 0 0 0 0 0 0 0 0 0 0 0
0 0 0 0 0 0 0 0 0 0 0 0 0 0 0 0 0 0 0 0 0 0 0 0 0 0 0 0 0 0 0 0 0 0 0 0 0 0
0 0 0 0 0 0 0 0 0 0 0 0 0 0 0 0 0 0 0 0 0 0 0 0 0 0 0 0 0 0 0 0 0 0 0 0 0 0
0 0 0 0 0 0 0 0 0 0 0 0 0 0 0 0 0 0 0 0 0 0 0 0 0 0 0 0 0 0 0 0 0 0 0 0 0 0
0 0 0 0 0 0 0 0 0 0 0 0 0 0 0 0 0 0 0 0 0 0 0 0 0 0 0 0 0 0 0 0 0 0 0 0 0 0
0 0 0 0 0 0 0 0 0 0 0 0 0 0 0 0 0 0 0 0 0 0 0 0 0 0 0 0 0 0 0 0 0 0 0 0 0 0
0 0 0 0 0 0 0 0 0 0 0 0 0 0 0 0 0 0 0 0 0 0 0 0 0 0 0 0 0 0 0 0 0 0 0 0 0 0
Wind_Speed
1 1 1 1 1 0 1 2 2 2 2 1 2 2 3 4 7 5 6 11 10 9 9 10 10 10 10 10 10 10 10 10 10 10 10 9 9 9
1 2 2 1 1 1 1 1 1 2 2 2 2 3 4 5 7 5 7 12 10 9 9 10 10 11 11 11 11 11 11 11 10 11 11 10 10 10
2 3 3 2 2 2 2 2 2 3 4 3 2 3 4 5 4 4 5 5 6 10 10 10 10 10 10 10 10 10 10 10 10 10 10 11 11 11
3 3 3 3 3 3 2 3 3 3 5 5 3 3 3 3 3 3 4 5 5 9 10 10 9 9 9 9 9 9 9 9 10 10 11 11 11 11
4 4 4 4 4 3 3 3 3 4 4 5 4 2 2 2 2 3 4 3 5 7 8 8 9 8 8 8 8 8 8 8 9 9 9 9 9 10
4 5 5 5 5 4 3 4 3 4 4 4 4 3 2 1 2 2 2 1 2 4 5 6 7 8 7 7 7 7 7 6 7 7 7 7 7 7
5 5 6 8 9 6 4 3 3 3 3 3 3 3 2 1 1 1 2 2 1 2 3 3 4 3 3 4 5 6 5 5 5 4 4 4 4 4
4 4 5 7 8 9 9 7 5 3 3 3 2 2 2 1 1 1 1 1 1 1 2 2 3 3 3 3 5 6 4 4 3 3 2 2 2 2
4 3 4 6 5 4 5 6 7 7 5 3 3 2 2 1 1 1 1 1 1 2 1 1 2 3 2 4 7 6 5 4 4 3 2 1 1 1
4 4 4 5 6 4 4 5 5 5 4 3 3 2 2 1 0 1 1 1 1 1 1 1 1 1 2 3 7 7 6 5 5 4 4 3 3 3
5 6 6 6 6 6 4 4 4 3 5 6 5 4 4 3 2 1 0 1 1 1 1 0 0 1 1 2 4 7 6 6 6 5 4 4 4 4
5 6 9 7 6 5 3 3 3 2 2 3 3 2 2 2 2 1 1 1 1 0 0 0 0 0 1 1 2 3 4 5 6 5 5 5 5 3
4 4 4 6 5 5 3 2 2 1 0 1 2 2 2 1 1 1 1 1 1 1 0 1 1 1 1 1 1 3 3 3 3 3 5 6 6 4
4 4 4 4 3 3 2 2 2 2 0 1 1 1 1 1 1 1 1 1 1 1 0 1 1 1 1 1 1 1 2 3 3 3 3 5 6 7
4 5 4 3 1 1 1 1 1 1 0 1 1 1 1 1 1 1 1 1 0 0 0 0 1 1 1 1 1 1 1 1 2 2 2 2 3 3
4 4 3 1 1 0 0 0 0 1 2 2 1 1 1 1 0 0 1 1 0 0 0 1 1 1 1 2 1 1 1 1 1 1 1 2 2 2
3 2 2 2 2 1 1 1 0 1 1 1 1 1 1 0 1 1 1 1 0 0 0 1 2 1 1 1 1 1 1 1 1 1 1 2 2 2
3 2 2 2 2 2 1 1 0 1 1 1 1 1 1 1 1 1 1 1 1 1 0 1 1 1 1 1 2 2 2 2 1 1 1 2 2 2
2 1 1 2 2 1 1 1 1 1 1 1 1 1 1 1 1 1 1 1 1 1 1 1 1 1 2 3 3 2 2 2 2 2 2 2 3 3
2 2 1 2 1 1 1 1 1 1 0 1 1 1 1 1 1 1 1 1 2 2 1 1 0 1 1 2 2 3 3 2 2 2 3 3 3 3
2 2 1 1 2 1 1 1 1 1 0 1 1 1 1 2 2 2 1 1 2 2 2 1 1 2 2 1 2 3 3 4 4 3 3 3 4 3
3 2 2 2 2 1 1 1 0 0 0 0 1 1 1 1 2 2 2 2 2 2 3 2 2 2 2 3 4 4 3 3 5 7 8 6 3 3
2 2 2 2 1 2 1 1 1 0 0 0 1 1 1 2 2 2 2 2 2 3 3 2 2 2 2 3 3 3 5 4 3 3 4 7 10 11
Wind_Direction
14 30 26 17 51 44 137 156 159 148 111 90 81 72 86 90 98 94 92 96 94 91 89 87 83 79 75 73 70 67 65 62 61 61 62 60 56 51
52 49 49 33 38 37 55 84 104 124 114 90 95 100 92 95 95 93 91 98 97 97 92 88 86 83 79 76 74 70 68 66 66 68 66 62 59 58
56 63 59 53 49 47 56 68 74 98 111 99 88 87 91 96 97 98 101 100 100 104 102 96 91 87 84 81 77 74 72 69 68 68 68 65 60 56
50 51 49 61 57 57 60 67 81 93 119 122 113 101 98 107 121 127 114 107 103 112 111 107 101 96 91 86 82 77 72 69 68 67 66 64 62 59
52 56 55 55 53 61 65 73 87 94 105 121 123 118 109 109 104 96 97 107 116 118 116 114 110 105 99 95 90 85 80 76 73 71 67 64 62 60
59 60 60 59 55 55 69 71 86 97 109 117 123 124 111 109 110 115 110 110 117 122 116 121 122 114 106 102 97 94 90 86 82 78 72 66 62 60
73 72 72 74 70 65 69 74 85 95 108 113 121 114 108 113 124 147 124 121 109 124 130 141 138 131 127 117 109 108 106 100 91 84 78 71 67 65
82 87 94 81 78 78 74 66 72 98 100 105 108 113 109 109 104 135 144 143 145 154 146 158 151 146 150 142 142 138 137 132 121 104 88 78 72 74
79 72 68 73 72 81 88 82 72 75 87 113 113 106 109 129 150 154 172 180 170 166 148 151 149 146 153 149 156 164 172 170 158 157 162 183 219 235
67 69 74 72 60 55 73 76 71 61 63 76 96 104 101 96 234 175 175 126 107 102 103 141 151 142 134 148 175 178 182 185 186 192 204 220 242 258
73 63 60 71 58 54 73 78 80 79 76 81 88 101 103 86 75 80 69 105 107 99 77 98 112 94 146 164 181 189 196 203 206 209 216 229 242 256
100 88 68 65 58 54 74 81 80 66 63 85 93 103 113 96 75 59 39 48 72 73 52 9 204 173 207 172 170 189 208 216 219 224 229 240 247 257
114 102 84 72 65 53 56 72 75 74 118 110 114 116 113 104 91 64 52 49 56 28 27 11 313 284 250 238 191 192 199 205 213 228 230 238 245 242
97 102 104 93 70 51 50 33 11 357 82 102 98 104 111 116 127 120 87 50 97 143 115 47 325 327 328 309 283 212 208 211 198 206 216 229 238 245
89 105 120 129 113 87 93 1 334 308 83 78 84 88 86 101 116 137 158 164 109 101 95 256 296 314 304 290 287 273 250 236 210 206 209 213 222 225
111 123 146 189 209 170 98 111 26 31 45 51 49 65 73 80 101 151 159 197 182 238 232 245 278 280 290 292 289 292 285 275 255 233 236 245 238 226
129 152 164 152 138 128 120 106 74 70 67 69 66 61 54 41 14 14 343 323 314 293 300 277 252 243 257 290 295 281 286 287 276 255 266 277 269 255
130 144 144 141 136 135 142 134 93 34 32 37 49 45 20 3 5 359 326 311 316 326 326 306 325 309 301 303 288 281 284 283 290 287 293 291 285 276
141 156 163 146 139 135 125 119 110 68 40 4 360 2 358 333 325 319 312 312 317 318 306 303 318 311 308 303 300 288 283 290 297 294 286 282 280 273
191 177 166 141 128 117 108 104 98 86 50 330 333 347 337 315 306 301 306 317 310 303 296 286 280 285 287 293 292 288 257 262 277 277 282 282 278 276
184 170 163 145 139 138 128 108 101 96 51 335 337 341 327 318 319 319 316 310 298 298 301 296 256 246 252 271 283 280 260 230 235 246 262 270 274 272
190 180 172 155 149 141 132 125 128 96 61 332 328 318 314 318 318 322 320 317 303 297 301 301 268 260 278 278 282 283 280 274 258 256 259 255 258 263
198 186 165 164 160 136 129 140 139 50 14 312 320 321 324 318 310 310 305 306 311 313 308 300 298 288 287 288 293 293 292 292 289 275 266 257 252 255